GW3550 Weather Reports


Display with metric or nautical units.
time (UTC)temp
F
wind
direction
speed
MPH
gust
MPH
rain 1hr
in
rain 24hr
in
rain mn
in
humidity
%
barometer
mb
20260831223324 91 100 0.0 4.0 0.00 0.00 0.00 47 1021.6
20260831222821 90 225 1.0 2.0 0.00 0.00 0.00 47 1021.7
20260831222316 91 31 2.0 2.0 0.00 0.00 0.00 49 1021.7
20260831221811 90 55 2.0 3.0 0.00 0.00 0.00 50 1021.7
20260831221306 90 48 3.0 4.0 0.00 0.00 0.00 50 1021.8
20260831220806 91 325 2.0 3.0 0.00 0.00 0.00 49 1021.8
20260831220301 92 250 2.0 3.0 0.00 0.00 0.00 49 1021.9
20260831215756 91 180 0.0 1.0 0.00 0.00 0.00 47 1021.7
20260831215252 91 87 1.0 3.0 0.00 0.00 0.00 48 1021.7
20260831214749 91 219 0.0 3.0 0.00 0.00 0.00 49 1021.9
20260831214246 91 265 2.0 3.0 0.00 0.00 0.00 51 1021.8
20260831213741 91 19 3.0 6.0 0.00 0.00 0.00 48 1021.9
20260831213238 91 219 0.0 2.0 0.00 0.00 0.00 50 1021.8
20260831212737 91 27 4.0 4.0 0.00 0.00 0.00 49 1021.8
20260831212234 91 183 3.0 4.0 0.00 0.00 0.00 49 1022.1
20260831211732 91 36 0.0 2.0 0.00 0.00 0.00 48 1021.9
20260831211228 92 333 0.0 1.0 0.00 0.00 0.00 48 1021.9
20260831210723 93 64 2.0 2.0 0.00 0.00 0.00 48 1021.8
20260831210219 92 71 2.0 3.0 0.00 0.00 0.00 47 1022.0
20260831205717 93 227 0.0 1.0 0.00 0.00 0.00 44 1022.2
20260831205214 92 75 0.0 2.0 0.00 0.00 0.00 47 1022.0
20260831204709 92 95 2.0 8.0 0.00 0.00 0.00 50 1022.1
20260831204208 91 218 0.0 3.0 0.00 0.00 0.00 47 1022.0
20260831203702 93 224 0.0 2.0 0.00 0.00 0.00 48 1022.1
20260831203201 92 210 1.0 3.0 0.00 0.00 0.00 49 1022.2
20260831202659 92 130 1.0 6.0 0.00 0.00 0.00 49 1022.2
20260831202155 93 86 0.0 2.0 0.00 0.00 0.00 50 1022.1
20260831201654 93 86 0.0 2.0 0.00 0.00 0.00 47 1022.3
20260831201148 94 219 0.0 2.0 0.00 0.00 0.00 50 1022.3
20260831200645 93 242 2.0 2.0 0.00 0.00 0.00 47 1022.5
20260831200144 94 249 3.0 4.0 0.00 0.00 0.00 50 1022.4
20260831195640 95 244 0.0 4.0 0.00 0.00 0.00 48 1022.6
20260831195135 94 241 0.0 1.0 0.00 0.00 0.00 52 1022.5
20260831194630 93 257 2.0 2.0 0.00 0.00 0.00 49 1022.5
20260831194125 92 244 0.0 2.0 0.00 0.00 0.00 53 1022.7
20260831193620 91 250 0.0 3.0 0.00 0.00 0.00 54 1022.7
20260831193115 92 225 1.0 3.0 0.00 0.00 0.00 55 1022.8
20260831192610 94 219 0.0 1.0 0.00 0.00 0.00 55 1022.8
20260831192105 92 223 0.0 3.0 0.00 0.00 0.00 55 1022.9
20260831191601 90 232 0.0 3.0 0.00 0.00 0.00 57 1023.0
20260831191057 92 62 4.0 8.0 0.00 0.00 0.00 56 1022.8
20260831190552 93 210 0.0 2.0 0.00 0.00 0.00 58 1022.9
20260831190045 90 239 1.0 1.0 0.00 0.00 0.00 59 1023.0
20260831185541 91 45 3.0 7.0 0.00 0.00 0.00 58 1023.2
20260831185037 90 232 1.0 2.0 0.00 0.00 0.00 55 1023.3
20260831184536 90 295 0.0 3.0 0.00 0.00 0.00 55 1023.2
20260831184032 90 33 4.0 6.0 0.00 0.00 0.00 56 1023.2
20260831183531 91 54 0.0 2.0 0.00 0.00 0.00 57 1023.4
20260831183030 90 322 2.0 2.0 0.00 0.00 0.00 56 1023.5
20260831182524 89 260 1.0 3.0 0.00 0.00 0.00 58 1023.6
20260831182020 91 82 0.0 2.0 0.00 0.00 0.00 57 1023.4
20260831181515 89 223 1.0 2.0 0.00 0.00 0.00 59 1023.4
20260831181015 88 66 3.0 6.0 0.00 0.00 0.00 61 1023.6
20260831180515 89 71 2.0 7.0 0.00 0.00 0.00 60 1023.8
20260831180010 89 146 0.0 2.0 0.00 0.00 0.00 58 1023.6
20260831175505 91 43 3.0 4.0 0.00 0.00 0.00 57 1023.6
20260831175001 90 231 0.0 2.0 0.00 0.00 0.00 57 1023.9
20260831174456 87 235 1.0 4.0 0.00 0.00 0.00 60 1023.8
20260831173955 89 33 0.0 2.0 0.00 0.00 0.00 59 1023.9
20260831173454 88 227 1.0 4.0 0.00 0.00 0.00 62 1023.8
20260831172950 90 72 4.0 6.0 0.00 0.00 0.00 60 1024.1
20260831172447 91 211 1.0 3.0 0.00 0.00 0.00 60 1023.9
20260831171942 92 184 1.0 2.0 0.00 0.00 0.00 60 1024.2
20260831171437 90 228 0.0 1.0 0.00 0.00 0.00 62 1024.2
20260831170934 90 94 0.0 2.0 0.00 0.00 0.00 62 1024.2
20260831170430 90 26 0.0 1.0 0.00 0.00 0.00 63 1024.4
20260831165927 89 252 0.0 0.0 0.00 0.00 0.00 60 1024.5
20260831165422 89 244 1.0 2.0 0.00 0.00 0.00 61 1024.3
20260831164919 89 34 0.0 2.0 0.00 0.00 0.00 64 1024.3
20260831164415 89 237 2.0 4.0 0.00 0.00 0.00 65 1024.6
20260831163910 88 178 0.0 0.0 0.00 0.00 0.00 66 1024.6
20260831163405 86 251 2.0 2.0 0.00 0.00 0.00 68 1024.8
20260831162904 84 333 0.0 3.0 0.00 0.00 0.00 71 1024.6
20260831162359 85 18 3.0 3.0 0.00 0.00 0.00 71 1024.6
20260831161857 86 257 1.0 3.0 0.00 0.00 0.00 70 1024.6
20260831161354 86 123 0.0 2.0 0.00 0.00 0.00 70 1024.6
20260831160849 87 249 1.0 2.0 0.00 0.00 0.00 69 1024.7
20260831160344 86 259 1.0 2.0 0.00 0.00 0.00 72 1024.7
20260831155839 85 25 3.0 4.0 0.00 0.00 0.00 73 1024.8
20260831155338 87 230 0.0 2.0 0.00 0.00 0.00 70 1025.0
20260831154834 85 239 1.0 3.0 0.00 0.00 0.00 73 1024.9
20260831154331 84 264 0.0 1.0 0.00 0.00 0.00 74 1024.9
20260831153829 83 227 0.0 1.0 0.00 0.00 0.00 77 1025.0
20260831153325 85 275 1.0 2.0 0.00 0.00 0.00 75 1024.9
20260831152821 87 250 1.0 3.0 0.00 0.00 0.00 73 1024.7
20260831152317 86 352 0.0 0.0 0.00 0.00 0.00 73 1024.9
20260831151812 86 215 0.0 0.0 0.00 0.00 0.00 73 1024.9
20260831151311 86 242 0.0 2.0 0.00 0.00 0.00 75 1024.8
20260831150806 86 1 2.0 2.0 0.00 0.00 0.00 73 1024.8
20260831150301 85 237 0.0 2.0 0.00 0.00 0.00 77 1025.1
20260831145800 85 255 3.0 3.0 0.00 0.00 0.00 77 1024.8
20260831145257 83 227 0.0 1.0 0.00 0.00 0.00 80 1024.7
20260831144752 83 243 2.0 3.0 0.00 0.00 0.00 80 1024.9
20260831144249 84 247 2.0 3.0 0.00 0.00 0.00 77 1024.7
20260831143748 82 222 0.0 1.0 0.00 0.00 0.00 80 1024.7
20260831143243 82 260 1.0 4.0 0.00 0.00 0.00 81 1024.9
20260831142739 82 251 0.0 1.0 0.00 0.00 0.00 79 1024.8
20260831142234 82 244 2.0 3.0 0.00 0.00 0.00 82 1024.8
20260831141733 82 270 1.0 2.0 0.00 0.00 0.00 83 1024.9
20260831141228 82 260 1.0 3.0 0.00 0.00 0.00 82 1024.9
20260831140729 81 228 0.0 1.0 0.00 0.00 0.00 82 1024.9
20260831140223 81 224 0.0 2.0 0.00 0.00 0.00 82 1024.5
20260831135721 82 207 0.0 0.0 0.00 0.00 0.00 81 1024.6
20260831135217 82 237 0.0 0.0 0.00 0.00 0.00 82 1024.5
20260831134712 81 248 0.0 0.0 0.00 0.00 0.00 82 1024.5
20260831134209 81 242 0.0 0.0 0.00 0.00 0.00 83 1024.7
20260831133707 81 231 0.0 0.0 0.00 0.00 0.00 83 1024.7
20260831133202 82 230 0.0 0.0 0.00 0.00 0.00 82 1024.7
20260831132657 81 2 0.0 0.0 0.00 0.00 0.00 82 1024.7
20260831132156 81 3 0.0 1.0 0.00 0.00 0.00 82 1024.5
20260831131651 80 314 0.0 0.0 0.00 0.00 0.00 84 1024.7
20260831131148 79 313 0.0 0.0 0.00 0.00 0.00 85 1024.6
20260831130643 78 314 0.0 0.0 0.00 0.00 0.00 85 1024.7
20260831130138 78 314 0.0 1.0 0.00 0.00 0.00 87 1024.7
20260831125636 77 313 0.0 0.0 0.00 0.00 0.00 87 1024.7
20260831125133 77 314 0.0 1.0 0.00 0.00 0.00 88 1024.7
20260831124628 77 226 0.0 0.0 0.00 0.00 0.00 87 1024.8
20260831124124 78 226 0.0 0.0 0.00 0.00 0.00 86 1024.7
20260831123624 77 226 0.0 0.0 0.00 0.00 0.00 88 1024.7
20260831123123 76 226 0.0 0.0 0.00 0.00 0.00 89 1024.8
20260831122622 76 226 0.0 0.0 0.00 0.00 0.00 91 1024.8
20260831122119 74 226 0.0 0.0 0.00 0.00 0.00 95 1024.7
20260831121618 73 226 0.0 0.0 0.00 0.00 0.00 95 1024.6
20260831121114 73 226 0.0 0.0 0.00 0.00 0.00 97 1024.5
20260831120609 72 226 0.0 0.0 0.00 0.00 0.00 99 1024.4
20260831120104 71 226 0.0 0.0 0.00 0.00 0.00 99 1024.4
20260831115600 70 226 0.0 0.0 0.00 0.00 0.00 99 1024.4
20260831115055 70 226 0.0 0.0 0.00 0.00 0.00 99 1024.3
20260831114554 70 226 0.0 0.0 0.00 0.00 0.00 99 1024.2
20260831114049 69 227 0.0 0.0 0.00 0.00 0.00 99 1024.2
20260831113548 69 227 0.0 0.0 0.00 0.00 0.00 99 1024.3
20260831113044 69 227 0.0 0.0 0.00 0.00 0.00 99 1024.4
20260831112543 69 227 0.0 0.0 0.00 0.00 0.00 99 1024.2
20260831112038 69 227 0.0 0.0 0.00 0.00 0.00 99 1024.2
20260831111535 69 227 0.0 0.0 0.00 0.00 0.00 99 1024.1
20260831111030 69 227 0.0 0.0 0.00 0.00 0.00 99 1023.9
20260831110525 69 227 0.0 0.0 0.00 0.00 0.00 99 1023.9
20260831110020 69 227 0.0 0.0 0.00 0.00 0.00 99 1023.9
20260831105519 69 227 0.0 0.0 0.00 0.00 0.00 99 1023.9
20260831105014 69 227 0.0 0.0 0.00 0.00 0.00 99 1023.8
20260831104511 69 227 0.0 0.0 0.00 0.00 0.00 99 1023.7
20260831104006 69 227 0.0 0.0 0.00 0.00 0.00 99 1023.5
20260831103501 69 227 0.0 0.0 0.00 0.00 0.00 99 1023.6
20260831102957 69 227 0.0 0.0 0.00 0.00 0.00 99 1023.5
20260831102456 69 227 0.0 0.0 0.00 0.00 0.00 99 1023.7
20260831101951 69 227 0.0 0.0 0.00 0.00 0.00 99 1023.6
20260831101446 69 227 0.0 0.0 0.00 0.00 0.00 99 1023.7
20260831100942 69 227 0.0 0.0 0.00 0.00 0.00 99 1023.5
20260831100438 69 227 0.0 0.0 0.00 0.00 0.00 99 1023.5
20260831095933 69 227 0.0 0.0 0.00 0.00 0.00 99 1023.3
20260831095432 69 227 0.0 0.0 0.00 0.00 0.00 99 1023.5
20260831094927 69 227 0.0 0.0 0.00 0.00 0.00 99 1023.3
20260831094423 69 227 0.0 0.0 0.00 0.00 0.00 99 1023.4
20260831093919 69 227 0.0 0.0 0.00 0.00 0.00 99 1023.4
20260831093414 69 227 0.0 0.0 0.00 0.00 0.00 99 1023.3
20260831092911 70 227 0.0 0.0 0.00 0.00 0.00 99 1023.3
20260831092406 70 227 0.0 0.0 0.00 0.00 0.00 99 1023.5
20260831091901 70 227 0.0 0.0 0.00 0.00 0.00 99 1023.4
20260831091356 70 227 0.0 0.0 0.00 0.00 0.00 99 1023.4
20260831090852 70 227 0.0 0.0 0.00 0.00 0.00 99 1023.5
20260831090348 70 227 0.0 0.0 0.00 0.00 0.00 99 1023.3
20260831085845 70 227 0.0 0.0 0.00 0.00 0.00 99 1023.3
20260831085344 70 227 0.0 0.0 0.00 0.00 0.00 99 1023.1
20260831084844 70 227 0.0 0.0 0.00 0.00 0.00 99 1023.0
20260831084340 70 227 0.0 0.0 0.00 0.00 0.00 99 1023.2
20260831083837 70 227 0.0 0.0 0.00 0.00 0.00 99 1023.1
20260831083332 70 227 0.0 0.0 0.00 0.00 0.00 99 1023.1
20260831082830 71 227 0.0 0.0 0.00 0.00 0.00 99 1023.0
20260831082326 71 227 0.0 0.0 0.00 0.00 0.00 99 1023.0
20260831081821 71 227 0.0 0.0 0.00 0.00 0.00 99 1023.1
20260831081317 71 227 0.0 0.0 0.00 0.00 0.00 99 1023.0
20260831080812 71 227 0.0 0.0 0.00 0.00 0.00 99 1023.1
20260831080307 71 227 0.0 0.0 0.00 0.00 0.00 99 1023.1
20260831075803 71 227 0.0 0.0 0.00 0.00 0.00 99 1023.1
20260831075258 71 227 0.0 0.0 0.00 0.00 0.00 99 1023.1
20260831074758 71 227 0.0 0.0 0.00 0.00 0.00 99 1023.1
20260831074251 71 227 0.0 0.0 0.00 0.00 0.00 99 1023.3
20260831073748 71 227 0.0 0.0 0.00 0.00 0.00 99 1022.9
20260831073246 71 227 0.0 0.0 0.00 0.00 0.00 99 1022.8
20260831072741 71 227 0.0 0.0 0.00 0.00 0.00 99 1022.8
20260831072233 71 227 0.0 0.0 0.00 0.00 0.00 99 1022.9
20260831071732 71 227 0.0 0.0 0.00 0.00 0.00 99 1022.9
20260831071226 71 227 0.0 0.0 0.00 0.00 0.00 99 1022.8
20260831070721 71 227 0.0 0.0 0.00 0.00 0.00 99 1022.8
20260831070220 71 227 0.0 0.0 0.00 0.00 0.00 99 1023.0
20260831065714 71 227 0.0 0.0 0.00 0.00 0.00 99 1022.9
20260831065212 71 227 0.0 0.0 0.00 0.00 0.00 99 1022.8
20260831064707 71 227 0.0 0.0 0.00 0.00 0.00 99 1022.7
20260831064202 71 227 0.0 0.0 0.00 0.00 0.00 99 1022.7
20260831063658 71 227 0.0 0.0 0.00 0.00 0.00 99 1022.8
20260831063148 72 227 0.0 0.0 0.00 0.00 0.00 98 1023.0
20260831062642 72 227 0.0 0.0 0.00 0.00 0.00 99 1022.8
20260831062136 72 227 0.0 0.0 0.00 0.00 0.00 99 1022.9
20260831061634 72 227 0.0 0.0 0.00 0.00 0.00 99 1022.9
20260831061131 72 227 0.0 0.0 0.00 0.00 0.00 99 1022.9
20260831060626 72 227 0.0 0.0 0.00 0.00 0.00 99 1023.0
20260831060120 72 227 0.0 0.0 0.00 0.00 0.00 98 1023.0
20260831055614 72 227 0.0 0.0 0.00 0.00 0.00 98 1023.0
20260831055110 72 227 0.0 0.0 0.00 0.00 0.00 98 1023.0
20260831054610 72 227 0.0 0.0 0.00 0.00 0.00 98 1022.9
20260831054109 73 227 0.0 0.0 0.00 0.00 0.00 98 1022.9
20260831053608 72 227 0.0 0.0 0.00 0.00 0.00 98 1023.2
20260831053102 73 227 0.0 0.0 0.00 0.00 0.00 98 1023.1
20260831052601 73 227 0.0 0.0 0.00 0.00 0.00 98 1023.3
20260831052056 73 227 0.0 0.0 0.00 0.00 0.00 97 1023.3
20260831051554 73 227 0.0 0.0 0.00 0.00 0.00 97 1023.2
20260831051053 73 227 0.0 0.0 0.00 0.00 0.00 97 1023.1
20260831050553 73 227 0.0 0.0 0.00 0.00 0.00 97 1023.1
20260831050051 73 227 0.0 0.0 0.00 0.00 0.00 97 1023.1
20260831045551 73 227 0.0 0.0 0.00 0.00 0.00 96 1023.2
20260831045046 74 227 0.0 0.0 0.00 0.00 0.00 96 1023.1
20260831044542 74 227 0.0 0.0 0.00 0.00 0.00 96 1023.1
20260831044037 74 227 0.0 0.0 0.00 0.00 0.00 97 1023.0
20260831043537 74 227 0.0 0.0 0.00 0.00 0.00 97 1023.2
20260831043033 74 227 0.0 0.0 0.00 0.00 0.00 96 1023.4
20260831042532 74 227 0.0 0.0 0.00 0.00 0.00 96 1023.2
20260831042032 74 227 0.0 0.0 0.00 0.00 0.00 96 1023.3
20260831041527 74 227 0.0 0.0 0.00 0.00 0.00 96 1023.3
20260831041021 74 227 0.0 0.0 0.00 0.00 0.00 96 1023.0
20260831040516 74 227 0.0 0.0 0.00 0.00 0.00 96 1023.2
20260831040016 74 227 0.0 0.0 0.00 0.00 0.00 96 1023.3
20260831035514 74 227 0.0 0.0 0.00 0.00 0.00 96 1023.3
20260831035009 74 227 0.0 0.0 0.00 0.00 0.00 95 1023.3
20260831034457 74 227 0.0 0.0 0.00 0.00 0.00 95 1023.4
20260831033953 75 227 0.0 0.0 0.00 0.00 0.00 95 1023.2
20260831033448 75 227 0.0 0.0 0.00 0.00 0.00 94 1023.3
20260831032943 75 227 0.0 0.0 0.00 0.00 0.00 94 1023.4
20260831032437 75 227 0.0 0.0 0.00 0.00 0.00 94 1023.1
20260831031932 75 227 0.0 0.0 0.00 0.00 0.00 94 1023.2
20260831031426 75 227 0.0 0.0 0.00 0.00 0.00 93 1023.3
20260831030920 76 227 0.0 0.0 0.00 0.00 0.00 93 1023.2
20260831030420 76 227 0.0 0.0 0.00 0.00 0.00 92 1023.4
20260831025918 76 227 0.0 0.0 0.00 0.00 0.00 92 1023.4
20260831025417 75 227 0.0 0.0 0.00 0.00 0.00 92 1023.4
20260831024913 75 227 0.0 0.0 0.00 0.00 0.00 92 1023.5
20260831024413 75 227 0.0 0.0 0.00 0.00 0.00 92 1023.5
20260831023908 76 227 0.0 0.0 0.00 0.00 0.00 91 1023.4
20260831023406 76 227 0.0 0.0 0.00 0.00 0.00 90 1023.6
20260831022901 76 227 0.0 0.0 0.00 0.00 0.00 90 1023.4
20260831022400 77 227 0.0 0.0 0.00 0.00 0.00 89 1023.5
20260831021855 76 227 0.0 0.0 0.00 0.00 0.00 89 1023.5
20260831021354 76 227 0.0 0.0 0.00 0.00 0.00 89 1023.6
20260831020850 77 227 0.0 0.0 0.00 0.00 0.00 88 1023.3
20260831020350 77 227 0.0 0.0 0.00 0.00 0.00 89 1023.3
20260831015845 77 82 0.0 0.0 0.00 0.00 0.00 88 1023.0
20260831015341 76 82 0.0 0.0 0.00 0.00 0.00 89 1023.2
20260831014841 77 82 0.0 0.0 0.00 0.00 0.00 88 1023.1
20260831014336 77 82 0.0 0.0 0.00 0.00 0.00 88 1023.2
20260831013832 77 82 0.0 0.0 0.00 0.00 0.00 88 1023.1
20260831013331 77 82 0.0 0.0 0.00 0.00 0.00 87 1023.1
20260831012826 77 82 0.0 0.0 0.00 0.00 0.00 87 1023.1
20260831012322 78 82 0.0 0.0 0.00 0.00 0.00 86 1022.9
20260831011821 78 82 0.0 0.0 0.00 0.00 0.00 85 1022.9
20260831011316 78 82 0.0 0.0 0.00 0.00 0.00 85 1022.9
20260831010812 78 82 0.0 0.0 0.00 0.00 0.00 84 1022.6
20260831010307 78 82 0.0 0.0 0.00 0.00 0.00 83 1022.6
20260831005803 78 81 0.0 0.0 0.00 0.00 0.00 83 1022.6
20260831005258 79 82 0.0 0.0 0.00 0.00 0.00 83 1022.4
20260831004752 79 82 0.0 0.0 0.00 0.00 0.00 82 1022.4
20260831004248 79 82 0.0 0.0 0.00 0.00 0.00 81 1022.2
20260831003743 80 81 0.0 0.0 0.00 0.00 0.00 80 1022.3
20260831003240 80 82 0.0 0.0 0.00 0.00 0.00 80 1022.3
20260831002739 81 81 0.0 0.0 0.00 0.00 0.00 79 1022.4
20260831002238 81 81 0.0 1.0 0.00 0.00 0.00 78 1022.3
20260831001735 81 81 1.0 2.0 0.00 0.00 0.00 78 1022.2
20260831001229 82 51 0.0 0.0 0.00 0.00 0.00 77 1022.2
20260831000726 82 51 1.0 2.0 0.00 0.00 0.00 76 1022.3
20260831000221 82 10 0.0 0.0 0.00 0.00 0.00 77 1022.4
20260830235720 82 10 0.0 0.0 0.00 0.00 0.00 76 1022.2
20260830235215 83 10 0.0 0.0 0.00 0.00 0.00 75 1022.4
20260830234710 83 10 0.0 0.0 0.00 0.00 0.00 74 1022.0
20260830234206 84 10 0.0 0.0 0.00 0.00 0.00 73 1022.1
20260830233701 85 10 0.0 1.0 0.00 0.00 0.00 72 1022.3
20260830233157 85 22 1.0 2.0 0.00 0.00 0.00 70 1022.3
20260830232652 85 31 1.0 2.0 0.00 0.00 0.00 69 1022.2
20260830232148 85 58 1.0 3.0 0.00 0.00 0.00 69 1022.1
20260830231645 85 59 1.0 3.0 0.00 0.00 0.00 69 1022.0
20260830231144 86 11 2.0 3.0 0.00 0.00 0.00 68 1022.0
20260830230639 86 52 2.0 3.0 0.00 0.00 0.00 67 1022.1
20260830230133 86 30 3.0 4.0 0.00 0.00 0.00 67 1022.0
20260830225628 85 30 2.0 6.0 0.00 0.00 0.00 67 1022.1
20260830225123 85 314 0.0 1.0 0.00 0.00 0.00 68 1021.9
20260830224621 85 184 0.0 1.0 0.00 0.00 0.00 68 1022.0
20260830224117 85 67 1.0 2.0 0.00 0.00 0.00 68 1022.1